Regional Weather Roundup
Issued by NWS

Home | Current Version | Previous Version | Text Only | Print | Product List | Glossary On
Versions: 1 2 3 4 5 6 7 8 9 10 11 12 13 14 15 16 17 18 19 20 21 22 23 24 25 26 27
000
ASPQ40 PGUM 282212
RWRPQ
WEATHER ROUNDUP FOR THE MARIANAS AND MICRONESIA
NATIONAL WEATHER SERVICE TIYAN GU
800 AM CHST SAT APR 29 2017

GUZ001>004-282300-
MARIANA ISLANDS-

CITY           SKY/WX    TMP DP  RH WIND       PRES   REMARKS
GUAM AIRPORT   MOSUNNY   82  77  83 SE8       29.94R HX  91
ANDERSEN AFB   PTSUNNY   82  75  78 SE14      29.95R
ROTA AIRPORT   MOSUNNY   81  75  83 SE13      29.93R
TINIAN AP      MOSUNNY   81  75  83 SE9       29.92R
SAIPAN AP      MOSUNNY   82  77  83 SE13      29.93R HX  91

$$

PMZ161-282300-
REPUBLIC OF PALAU-

CITY           SKY/WX    TMP DP  RH WIND       PRES   REMARKS
KOROR AP       PTSUNNY   77  75  94 CALM      29.85R
KOROR WSO      CLOUDY    81  77  89 CALM      29.87R

$$

PMZ171>174-282300-
FEDERATED STATES OF MICRONESIA-

CITY           SKY/WX    TMP DP  RH WIND       PRES   REMARKS
YAP AIRPORT    PTSUNNY   81  79  94 VRB2      29.87R
CHUUK AP       PTSUNNY   84  79  84 N9        29.89R HX  96
POHNPEI AP     PTSUNNY   86  77  74 E12       29.87  HX  97
POHNPEI WSO    CLOUDY    88  75  66 NE8       29.92S HX  97
KOSRAE AP      CLOUDY    84  75  74 NE20      29.87  HX  92

$$

PMZ181-282300-
REPUBLIC OF THE MARSHALL ISLANDS-

CITY           SKY/WX    TMP DP  RH WIND       PRES   REMARKS
KWAJALEIN AP   MOSUNNY   86  73  66 NE21G28   29.90S HX  93
MAJURO AP      CLOUDY    82  75  78 NE18      29.87S
MAJURO WSO     PTSUNNY   84  77  79 E21       29.85S HX  94

$$





USA.gov is the U.S. government's official web portal to all federal, state and local government web resources and services.